Watford City, ND

2:32 PM CDT on June 25, 2017 (GMT -0500)
Watford City

Weather History for KS25 - January, 2014

Change the Weather History Date:

Wednesday, January 29, 2014

  Actual Average (KISN) Record (KISN)
Temperature  
Mean Temperature 15 °F -  
Max Temperature 24 °F 21 °F 51 °F (1931)
Min Temperature 6 °F -2 °F -40 °F (1966)
Degree Days  
Heating Degree Days 50    
Moisture  
Dew Point 9 °F    
Average Humidity 70    
Maximum Humidity 79    
Minimum Humidity 63    
Precipitation  
Precipitation 0.00 in - - ()
Sea Level Pressure  
Sea Level Pressure 29.57 in    
Wind  
Wind Speed 8 mph (NW)    
Max Wind Speed 20 mph    
Max Gust Speed 25 mph    
Visibility 10 miles    
Events Snow    
Averages and records for this station are not official NWS values.
T = Trace of Precipitation, MM = Missing Value Source: NWS Daily Summary

Daily Weather History Graph

Daily Weather History Graph

Search for Another Location

Airport or City:

Trip Planner

Search our weather history database for the weather conditions in past years. The results will help you decide how hot, cold, wet, or windy it might be!

Date:

Astronomy

Jan. 29, 2014 Rise Set
Actual Time 8:23 AM CST 5:49 PM CST
Civil Twilight 7:50 AM CST 6:22 PM CST
Nautical Twilight 7:13 AM CST 6:59 PM CST
Astronomical Twilight 6:36 AM CST 7:36 PM CST
Moon 7:03 AM CST (1/29) 4:51 PM CST (1/29)
Length of Visible Light 10h 32m
Length of Day
9h 25m
Waning Crescent, 2% of the Moon is Illuminated
Jan 29
Waning Crescent
Jan 30
New
Feb 6
First Quarter
Feb 14
Full
Feb 22
Last Quarter

Hourly Weather History & Observations

Time (CST) Temp. Windchill Dew Point Humidity Pressure Visibility Wind Dir Wind Speed Gust Speed Precip Events Conditions
12:15 AM 6.8 °F - -0.4 °F 72% 29.73 in 10.0 mi Calm Calm - N/A   Clear
12:35 AM 8.6 °F - 1.4 °F 73% 29.71 in 10.0 mi Calm Calm - N/A   Clear
12:55 AM 8.6 °F - 1.4 °F 73% 29.69 in 10.0 mi Calm Calm - N/A   Clear
1:15 AM 8.6 °F - 1.4 °F 73% 29.67 in 10.0 mi Calm Calm - N/A   Clear
1:35 AM 8.6 °F - 1.4 °F 73% 29.66 in 10.0 mi Calm Calm - N/A   Clear
1:55 AM 10.4 °F - 3.2 °F 73% 29.64 in 10.0 mi Calm Calm - N/A   Clear
2:15 AM 8.6 °F 2.0 °F 3.2 °F 79% 29.63 in 10.0 mi WNW 3.5 mph - N/A   Clear
2:35 AM 10.4 °F -2.4 °F 5.0 °F 79% 29.62 in 10.0 mi SW 9.2 mph - N/A   Clear
2:55 AM 14.0 °F 2.0 °F 6.8 °F 73% 29.61 in 10.0 mi WSW 9.2 mph - N/A   Clear
3:15 AM 14.0 °F 1.2 °F 6.8 °F 73% 29.60 in 10.0 mi West 10.4 mph - N/A   Clear
3:35 AM 15.8 °F 2.1 °F 8.6 °F 73% 29.58 in 10.0 mi SW 12.7 mph - N/A   Clear
3:55 AM 17.6 °F 3.7 °F 8.6 °F 68% 29.57 in 10.0 mi SW 13.8 mph - N/A   Clear
4:15 AM 17.6 °F 3.7 °F 8.6 °F 68% 29.56 in 10.0 mi WSW 13.8 mph - N/A   Clear
4:35 AM 15.8 °F 2.1 °F 8.6 °F 73% 29.56 in 10.0 mi SW 12.7 mph - N/A   Clear
4:55 AM 17.6 °F 4.3 °F 8.6 °F 68% 29.55 in 10.0 mi SW 12.7 mph - N/A   Clear
5:15 AM 17.6 °F 6.4 °F 8.6 °F 68% 29.55 in 10.0 mi SW 9.2 mph - N/A   Clear
5:35 AM 17.6 °F 5.7 °F 10.4 °F 73% 29.54 in 10.0 mi WSW 10.4 mph - N/A   Clear
5:55 AM 23.0 °F 9.2 °F 12.2 °F 63% 29.55 in 10.0 mi West 17.3 mph 23.0 mph N/A   Clear
6:15 AM 21.2 °F 8.3 °F 12.2 °F 68% 29.55 in 10.0 mi West 13.8 mph 19.6 mph N/A   Clear
6:35 AM 21.2 °F 8.3 °F 12.2 °F 68% 29.55 in 10.0 mi West 13.8 mph - N/A   Clear
6:55 AM 21.2 °F 8.3 °F 12.2 °F 68% 29.55 in 10.0 mi West 13.8 mph 19.6 mph N/A   Clear
7:15 AM 21.2 °F 8.3 °F 14.0 °F 74% 29.55 in 10.0 mi West 13.8 mph - N/A   Clear
7:55 AM 21.2 °F 8.3 °F 12.2 °F 68% 29.55 in 10.0 mi West 13.8 mph 20.7 mph N/A   Clear
8:15 AM 19.4 °F 6.6 °F 12.2 °F 74% 29.55 in 10.0 mi West 12.7 mph - N/A   Clear
8:35 AM 19.4 °F 5.0 °F 12.2 °F 74% 29.55 in 10.0 mi West 16.1 mph 20.7 mph N/A   Clear
8:55 AM 19.4 °F 5.0 °F 12.2 °F 74% 29.56 in 10.0 mi West 16.1 mph - N/A   Clear
9:15 AM 21.2 °F 6.8 °F 14.0 °F 74% 29.56 in 10.0 mi West 17.3 mph 23.0 mph N/A   Clear
9:35 AM 23.0 °F 12.4 °F 14.0 °F 68% 29.57 in 10.0 mi West 10.4 mph 18.4 mph N/A   Clear
9:55 AM 24.8 °F 14.6 °F 14.0 °F 64% 29.58 in 10.0 mi WNW 10.4 mph 17.3 mph N/A   Clear
10:15 AM 24.8 °F 12.9 °F 14.0 °F 64% 29.57 in 10.0 mi WNW 13.8 mph 21.9 mph N/A   Clear
10:35 AM 24.8 °F 10.7 °F 14.0 °F 64% 29.57 in 10.0 mi NW 19.6 mph 25.3 mph N/A   Clear
10:55 AM 23.0 °F 9.2 °F 14.0 °F 68% 29.58 in 10.0 mi NNW 17.3 mph - N/A   Clear
11:15 AM 23.0 °F 10.1 °F 14.0 °F 68% 29.58 in 10.0 mi NW 15.0 mph 24.2 mph N/A   Clear
11:35 AM 23.0 °F 10.1 °F 14.0 °F 68% 29.59 in 10.0 mi NW 15.0 mph 21.9 mph N/A   Clear
11:55 AM 23.0 °F 10.1 °F 14.0 °F 68% 29.58 in 10.0 mi NNW 15.0 mph 24.2 mph N/A   Clear
12:15 PM 23.0 °F 12.4 °F 14.0 °F 68% 29.59 in 10.0 mi NW 10.4 mph 16.1 mph N/A   Scattered Clouds
12:35 PM 23.0 °F 10.1 °F 14.0 °F 68% 29.58 in 10.0 mi NW 15.0 mph 20.7 mph N/A   Scattered Clouds
12:55 PM 21.2 °F 9.5 °F 14.0 °F 74% 29.57 in 10.0 mi NNW 11.5 mph - N/A   Scattered Clouds
1:15 PM 23.0 °F 11.1 °F 14.0 °F 68% 29.56 in 10.0 mi NW 12.7 mph - N/A   Overcast
1:35 PM 23.0 °F 10.1 °F 14.0 °F 68% 29.56 in 10.0 mi NNW 15.0 mph - N/A   Mostly Cloudy
1:55 PM 21.2 °F 8.3 °F 12.2 °F 68% 29.54 in 10.0 mi NNW 13.8 mph - N/A   Scattered Clouds
2:15 PM 21.2 °F 8.9 °F 10.4 °F 63% 29.54 in 10.0 mi NNW 12.7 mph 19.6 mph N/A   Clear
2:35 PM 19.4 °F 6.6 °F 10.4 °F 68% 29.53 in 10.0 mi NNW 12.7 mph 17.3 mph N/A   Clear
2:55 PM 19.4 °F 7.2 °F 10.4 °F 68% 29.52 in 10.0 mi NNW 11.5 mph - N/A   Partly Cloudy
3:15 PM 19.4 °F 6.0 °F 10.4 °F 68% 29.52 in 10.0 mi NNW 13.8 mph - N/A   Partly Cloudy
3:35 PM 19.4 °F 8.6 °F 10.4 °F 68% 29.53 in 10.0 mi NW 9.2 mph - N/A   Partly Cloudy
3:55 PM 19.4 °F 7.9 °F 8.6 °F 63% 29.54 in 10.0 mi NNW 10.4 mph - N/A   Scattered Clouds
4:15 PM 19.4 °F 8.6 °F 8.6 °F 63% 29.53 in 10.0 mi North 9.2 mph - N/A   Mostly Cloudy
4:35 PM 17.6 °F 4.3 °F 8.6 °F 68% 29.52 in 10.0 mi North 12.7 mph - N/A   Scattered Clouds
4:55 PM 17.6 °F 5.0 °F 8.6 °F 68% 29.51 in 10.0 mi North 11.5 mph - N/A   Clear
5:15 PM 17.6 °F 8.2 °F 8.6 °F 68% 29.53 in 10.0 mi NNW 6.9 mph - N/A   Clear
5:35 PM 17.6 °F 9.3 °F 8.6 °F 68% 29.53 in 10.0 mi NNW 5.8 mph - N/A   Clear
5:55 PM 15.8 °F 4.2 °F 8.6 °F 73% 29.54 in 10.0 mi NNW 9.2 mph - N/A   Clear
6:15 PM 15.8 °F 3.4 °F 8.6 °F 73% 29.55 in 10.0 mi North 10.4 mph - N/A   Partly Cloudy
6:35 PM 15.8 °F 4.2 °F 8.6 °F 73% 29.54 in 10.0 mi NNW 9.2 mph - N/A   Partly Cloudy
6:55 PM 15.8 °F 5.1 °F 8.6 °F 73% 29.54 in 10.0 mi North 8.1 mph - N/A   Partly Cloudy
7:15 PM 15.8 °F 5.1 °F 8.6 °F 73% 29.54 in 10.0 mi North 8.1 mph - N/A   Partly Cloudy
7:35 PM 15.8 °F 3.4 °F 8.6 °F 73% 29.54 in 10.0 mi North 10.4 mph - N/A   Scattered Clouds
7:55 PM 15.8 °F 5.1 °F 8.6 °F 73% 29.54 in 10.0 mi North 8.1 mph - N/A   Partly Cloudy
8:15 PM 14.0 °F 3.9 °F 6.8 °F 73% 29.55 in 10.0 mi North 6.9 mph - N/A   Mostly Cloudy
8:35 PM 14.0 °F 1.2 °F 6.8 °F 73% 29.55 in 10.0 mi NNW 10.4 mph - N/A   Overcast
8:55 PM 14.0 °F 1.2 °F 6.8 °F 73% 29.56 in 10.0 mi NNW 10.4 mph - N/A   Mostly Cloudy
9:15 PM 14.0 °F 2.9 °F 6.8 °F 73% 29.56 in 10.0 mi North 8.1 mph - N/A   Mostly Cloudy
9:35 PM 12.2 °F -1.0 °F 5.0 °F 73% 29.56 in 10.0 mi North 10.4 mph - N/A   Mostly Cloudy
9:55 PM 12.2 °F -1.0 °F 5.0 °F 73% 29.57 in 10.0 mi North 10.4 mph - N/A   Partly Cloudy
10:15 PM 10.4 °F -3.3 °F 5.0 °F 79% 29.57 in 10.0 mi North 10.4 mph - N/A   Scattered Clouds
10:35 PM 10.4 °F -4.1 °F 1.4 °F 67% 29.58 in 10.0 mi North 11.5 mph - N/A   Mostly Cloudy
10:55 PM 10.4 °F -4.8 °F 5.0 °F 79% 29.59 in 5.0 mi North 12.7 mph - N/A Snow Light Snow
11:15 PM 10.4 °F -3.3 °F 5.0 °F 79% 29.60 in 10.0 mi NNW 10.4 mph - N/A Snow Light Snow
11:35 PM 10.4 °F -4.1 °F 1.4 °F 67% 29.60 in 10.0 mi North 11.5 mph 17.3 mph N/A Snow Light Snow
11:55 PM 10.4 °F -4.8 °F 1.4 °F 67% 29.61 in 10.0 mi North 12.7 mph 17.3 mph N/A   Mostly Cloudy